McCall, ID

9:26 AM MST on November 18, 2017 (GMT -0700)
McCall

Weather History for KMYL - June, 2014

Change the Weather History Date:

Saturday, June 14, 2014

  Actual Average Record
Temperature  
Mean Temperature 49 °F 52 °F  
Max Temperature 59 °F 67 °F 89 °F (1974)
Min Temperature 38 °F 37 °F 27 °F (2001)
Degree Days  
Heating Degree Days 16 13  
Month to date heating degree days 137 200  
Since 1 June heating degree days 137 200  
Since 1 July heating degree days 8411 9429  
Cooling Degree Days 0 0  
Month to date cooling degree days 0 0  
Year to date cooling degree days 0 0  
Since 1 June cooling degree days 0 0  
Moisture  
Dew Point 37 °F    
Average Humidity 68    
Maximum Humidity 92    
Minimum Humidity 43    
Precipitation  
Precipitation 0.00 in 0.07 in 1.55 in (1970)
Month to date precipitation 0.23 1.06  
Year to date precipitation 14.61 10.84  
Sea Level Pressure  
Sea Level Pressure 29.97 in    
Wind  
Wind Speed 3 mph (West)    
Max Wind Speed 10 mph    
Max Gust Speed 14 mph    
Visibility 10 miles    
Events      
T = Trace of Precipitation, MM = Missing Value Source: NWS Daily Summary

Daily Weather History Graph

Daily Weather History Graph

Search for Another Location

Airport or City:

Trip Planner

Search our weather history database for the weather conditions in past years. The results will help you decide how hot, cold, wet, or windy it might be!

Date:

Astronomy

Jun. 14, 2014 Rise Set
Actual Time 5:57 AM MDT 9:32 PM MDT
Civil Twilight 5:20 AM MDT 10:09 PM MDT
Nautical Twilight 4:31 AM MDT 10:58 PM MDT
Astronomical Twilight 3:26 AM MDT 12:03 AM MDT
Moon 10:53 PM MDT (6/14) 7:51 AM MDT (6/14)
Length of Visible Light 16h 49m
Length of Day
15h 34m
Waning Gibbous, 96% of the Moon is Illuminated
Jun 14
Waning Gibbous
Jun 19
Last Quarter
Jun 27
New
Jul 5
First Quarter
Jul 12
Full

Hourly Weather History & Observations

Time (MDT) Temp. Windchill Dew Point Humidity Pressure Visibility Wind Dir Wind Speed Gust Speed Precip Events Conditions
12:51 AM 42.1 °F 40.2 °F 37.0 °F 82% 29.94 in 10.0 mi NW 3.5 mph - 0.00 in   Overcast
1:51 AM 42.1 °F 39.2 °F 37.0 °F 82% 29.95 in 10.0 mi SW 4.6 mph - N/A   Overcast
2:51 AM 42.1 °F 40.2 °F 37.0 °F 82% 29.95 in 10.0 mi NNW 3.5 mph - N/A   Overcast
3:51 AM 42.1 °F - 37.0 °F 82% 29.95 in 10.0 mi Calm Calm - N/A   Overcast
4:00 AM 42.1 °F 40.2 °F 37.0 °F 82% 29.99 in 10.0 mi NNW 3.5 mph - N/A   Overcast
4:11 AM 41.0 °F 38.0 °F 37.0 °F 86% 29.99 in 10.0 mi WNW 4.6 mph - N/A   Overcast
4:51 AM 41.0 °F 39.0 °F 37.0 °F 86% 29.96 in 10.0 mi West 3.5 mph - N/A   Overcast
5:51 AM 39.9 °F 37.8 °F 37.0 °F 89% 29.98 in 10.0 mi West 3.5 mph - N/A   Partly Cloudy
6:51 AM 41.0 °F - 37.0 °F 86% 29.97 in 10.0 mi Calm Calm - N/A   Overcast
7:05 AM 39.9 °F - 37.0 °F 89% 29.99 in 10.0 mi Calm Calm - N/A   Mostly Cloudy
7:21 AM 41.0 °F - 37.0 °F 86% 29.99 in 10.0 mi Calm Calm - N/A   Mostly Cloudy
7:51 AM 42.1 °F 40.2 °F 37.0 °F 82% 29.98 in 10.0 mi SW 3.5 mph - N/A   Overcast
8:16 AM 42.1 °F 40.2 °F 37.9 °F 85% 30.00 in 10.0 mi South 3.5 mph - N/A   Overcast
8:51 AM 44.1 °F - 37.0 °F 76% 29.98 in 10.0 mi Calm Calm - N/A   Overcast
9:15 AM 44.1 °F 42.5 °F 37.0 °F 76% 30.00 in 10.0 mi SW 3.5 mph - N/A   Overcast
9:35 AM 45.0 °F 43.5 °F 36.0 °F 71% 30.00 in 10.0 mi Variable 3.5 mph - N/A   Overcast
9:51 AM 45.0 °F 41.2 °F 36.0 °F 71% 29.99 in 10.0 mi WNW 6.9 mph - N/A   Overcast
10:51 AM 46.0 °F - 36.0 °F 68% 29.99 in 10.0 mi Calm Calm - N/A   Overcast
12:29 PM 48.9 °F - 36.0 °F 61% 30.00 in 10.0 mi Variable 5.8 mph - N/A   Overcast
12:51 PM 48.9 °F - 37.0 °F 64% 29.99 in 10.0 mi WNW 8.1 mph - N/A   Overcast
1:36 PM 50.0 °F - 37.0 °F 61% 30.01 in 10.0 mi NW 4.6 mph - N/A   Overcast
1:45 PM 50.0 °F - 37.0 °F 61% 30.01 in 10.0 mi West 3.5 mph - N/A   Overcast
1:51 PM 50.0 °F - 37.0 °F 61% 29.99 in 10.0 mi West 6.9 mph - N/A   Overcast
2:51 PM 50.0 °F - 37.0 °F 61% 29.99 in 10.0 mi NW 6.9 mph - N/A   Overcast
3:51 PM 53.1 °F - 37.9 °F 57% 29.98 in 10.0 mi Variable 5.8 mph - N/A   Overcast
4:51 PM 55.9 °F - 37.9 °F 51% 29.96 in 10.0 mi Calm Calm - N/A   Overcast
5:51 PM 55.0 °F - 36.0 °F 49% 29.96 in 10.0 mi Calm Calm - N/A   Mostly Cloudy
6:51 PM 55.9 °F - 34.0 °F 44% 29.94 in 10.0 mi Variable 3.5 mph - N/A   Partly Cloudy
7:51 PM 54.0 °F - 37.0 °F 53% 29.94 in 10.0 mi South 5.8 mph - N/A   Clear
8:51 PM 54.0 °F - 36.0 °F 51% 29.93 in 10.0 mi Calm Calm - N/A   Clear
9:51 PM 48.9 °F - 39.0 °F 69% 29.94 in 10.0 mi Calm Calm - N/A   Clear
11:51 PM 43.0 °F - 37.0 °F 80% 29.93 in 10.0 mi Calm Calm - N/A   Clear